Location: Lane
(33.5226°N, 79.8788°W)
Time: 08:04:10
(UTC+00:00)

Explorer 7 - Pass Details

Date: 07 October 2022
Orbit: 481 x 665 km, 50.3° (Epoch: 28 November)

Event Time Altitude Azimuth Distance (km) Brightness Sun altitude
Rises 21:30:06 0° 305° (NW) 2,912 11.0 16.6°
Reaches altitude 10° 21:32:34 10° 298° (WNW) 1,973 10.4 16.1°
Maximum altitude 21:36:49 41° 228° (SW) 852 8.9 15.3°
Drops below altitude 10° 21:40:49 10° 157° (SSE) 1,852 9.5 14.5°
Sets 21:43:05 0° 150° (SSE) 2,711 10.2 14.0°
